GFSNW_500_temp_096.txt.gz
Temp
-19 -19 -21 -20 -21 -21 -23 -23 -23 -22 -21 -21 -21 -21 -20 -20 -21 -21 -21 -22 -23 -25 -27 -28 -26 -25 -25 -24 -24 -24 -24 -23 -23 -22 -21 -21 -23 -21 -20 -20 -20 -19 -18 -18
-20 -21 -21 -22 -23 -23 -23 -24 -23 -22 -22 -22 -21 -21 -21 -21 -21 -22 -23 -25 -27 -28 -28 -28 -26 -25 -25 -25 -24 -23 -23 -23 -22 -21 -21 -21 -21 -21 -20 -20 -19 -19 -19 -18
-22 -22 -23 -24 -23 -25 -25 -24 -23 -23 -22 -22 -21 -21 -22 -22 -23 -24 -25 -27 -28 -28 -28 -28 -27 -25 -25 -24 -24 -23 -23 -22 -21 -21 -21 -21 -20 -21 -20 -20 -19 -19 -19 -19
-22 -24 -24 -25 -26 -25 -24 -24 -23 -23 -22 -22 -21 -22 -23 -25 -25 -26 -26 -27 -28 -29 -28 -28 -26 -25 -25 -24 -24 -23 -23 -23 -22 -20 -20 -20 -20 -20 -19 -19 -19 -20 -20 -20
-24 -24 -26 -26 -25 -25 -25 -24 -24 -23 -23 -22 -22 -23 -24 -26 -26 -26 -27 -27 -28 -28 -27 -27 -25 -25 -25 -24 -23 -23 -22 -22 -22 -20 -20 -21 -20 -20 -21 -20 -21 -20 -20 -20
-25 -26 -26 -25 -25 -25 -24 -24 -24 -23 -23 -23 -23 -24 -26 -26 -27 -27 -26 -27 -27 -27 -26 -26 -25 -25 -24 -24 -23 -22 -22 -22 -22 -21 -22 -22 -21 -22 -22 -20 -21 -21 -20 -20
-25 -26 -25 -26 -26 -25 -25 -24 -24 -23 -23 -23 -24 -25 -26 -26 -27 -27 -27 -27 -27 -26 -25 -25 -25 -24 -24 -24 -23 -23 -23 -22 -22 -22 -22 -22 -21 -21 -21 -21 -21 -21 -21 -20
-26 -26 -26 -26 -26 -25 -25 -25 -24 -24 -24 -24 -24 -25 -26 -27 -27 -27 -26 -27 -26 -26 -25 -25 -25 -24 -24 -23 -23 -22 -22 -21 -22 -22 -22 -22 -21 -21 -21 -22 -21 -21 -21 -20
-25 -26 -27 -26 -25 -25 -25 -25 -24 -24 -24 -25 -25 -26 -27 -27 -27 -27 -26 -27 -26 -25 -25 -25 -25 -24 -24 -24 -23 -23 -22 -22 -22 -22 -22 -22 -22 -22 -22 -21 -21 -21 -20 -20
-26 -26 -27 -26 -26 -25 -25 -25 -24 -24 -25 -25 -25 -27 -27 -27 -27 -27 -27 -26 -27 -26 -25 -25 -25 -25 -24 -24 -24 -23 -22 -22 -22 -22 -22 -22 -22 -22 -22 -21 -21 -21 -20 -20
-26 -27 -27 -26 -26 -26 -25 -25 -24 -25 -25 -25 -26 -27 -28 -27 -27 -27 -27 -26 -26 -26 -26 -25 -25 -25 -24 -24 -24 -25 -24 -23 -23 -23 -22 -22 -22 -22 -21 -21 -21 -21 -21 -21
-27 -27 -26 -27 -26 -26 -25 -25 -25 -25 -26 -26 -27 -27 -28 -28 -27 -27 -27 -27 -27 -26 -26 -25 -25 -25 -25 -24 -24 -24 -24 -23 -23 -22 -22 -22 -22 -22 -22 -21 -22 -21 -21 -21
-26 -26 -27 -27 -26 -26 -25 -25 -25 -26 -26 -26 -27 -28 -28 -28 -28 -27 -27 -27 -27 -26 -26 -26 -25 -25 -25 -25 -24 -24 -23 -23 -23 -23 -22 -22 -22 -22 -22 -22 -22 -22 -22 -21
-26 -27 -27 -27 -26 -26 -25 -25 -26 -26 -26 -26 -27 -27 -28 -28 -28 -28 -27 -27 -27 -27 -27 -26 -26 -26 -25 -25 -24 -24 -24 -23 -23 -23 -22 -22 -22 -22 -22 -22 -22 -22 -22 -21
-27 -27 -27 -27 -26 -26 -25 -26 -26 -26 -26 -26 -27 -27 -28 -28 -28 -28 -28 -27 -27 -27 -27 -27 -26 -26 -26 -25 -24 -24 -24 -23 -23 -23 -23 -23 -23 -23 -22 -22 -22 -23 -22 -22
-27 -27 -27 -27 -26 -26 -26 -26 -27 -26 -26 -26 -27 -27 -27 -28 -28 -28 -28 -27 -27 -27 -27 -27 -26 -26 -26 -25 -25 -24 -24 -24 -23 -23 -23 -23 -23 -23 -23 -23 -23 -23 -22 -22
-27 -27 -27 -27 -26 -26 -26 -27 -27 -26 -26 -26 -27 -27 -27 -28 -28 -28 -28 -27 -27 -27 -27 -27 -27 -26 -26 -26 -25 -24 -24 -24 -24 -24 -24 -23 -23 -23 -24 -23 -23 -23 -23 -22
-27 -27 -27 -27 -26 -27 -27 -27 -27 -26 -26 -26 -27 -27 -27 -27 -27 -28 -27 -27 -27 -27 -27 -27 -27 -26 -26 -25 -25 -25 -24 -24 -24 -24 -24 -23 -23 -23 -23 -23 -23 -23 -23 -23
-27 -27 -27 -27 -27 -27 -27 -27 -27 -27 -27 -27 -27 -27 -27 -28 -27 -27 -27 -27 -27 -27 -27 -27 -27 -26 -25 -25 -25 -25 -25 -24 -24 -24 -24 -24 -23 -23 -23 -23 -23 -23 -23 -23
-27 -27 -27 -27 -27 -28 -28 -28 -28 -27 -27 -27 -27 -27 -28 -28 -27 -27 -27 -27 -27 -27 -27 -27 -26 -26 -26 -25 -25 -25 -25 -25 -24 -24 -24 -24 -24 -24 -24 -23 -23 -23 -23 -23
-28 -28 -28 -28 -28 -29 -28 -28 -28 -28 -28 -27 -27 -28 -28 -28 -28 -27 -27 -27 -27 -27 -27 -26 -26 -26 -26 -25 -25 -25 -24 -24 -24 -24 -24 -24 -24 -23 -23 -23 -23 -23 -23 -23
-28 -28 -28 -28 -29 -29 -28 -28 -28 -28 -28 -28 -28 -28 -28 -28 -28 -28 -27 -27 -27 -27 -27 -26 -26 -26 -25 -25 -25 -25 -25 -25 -24 -24 -24 -24 -23 -23 -23 -23 -23 -24 -24 -24
-29 -29 -29 -29 -29 -29 -28 -28 -29 -29 -28 -28 -28 -28 -28 -28 -28 -28 -27 -27 -27 -27 -27 -26 -26 -26 -25 -25 -25 -25 -25 -24 -24 -24 -24 -23 -24 -24 -24 -24 -24 -24 -24 -24
-29 -29 -28 -29 -29 -28 -28 -29 -29 -28 -28 -28 -29 -29 -29 -29 -28 -28 -27 -27 -27 -27 -27 -26 -26 -26 -25 -25 -25 -25 -24 -24 -24 -24 -24 -24 -24 -24 -24 -24 -24 -24 -24 -24
-30 -29 -29 -29 -29 -29 -29 -29 -29 -29 -29 -29 -29 -29 -29 -29 -29 -28 -27 -27 -27 -27 -27 -26 -26 -26 -25 -25 -25 -24 -24 -24 -24 -24 -24 -24 -24 -24 -24 -24 -24 -24 -24 -24
-30 -29 -29 -29 -29 -29 -29 -29 -29 -29 -29 -29 -28 -28 -29 -28 -28 -28 -27 -27 -27 -27 -26 -26 -26 -25 -25 -25 -24 -24 -24 -24 -24 -24 -24 -24 -24 -25 -24 -24 -24 -24 -25 -25
-30 -30 -29 -29 -29 -29 -29 -29 -29 -29 -29 -29 -28 -28 -28 -28 -28 -28 -27 -27 -27 -27 -27 -26 -26 -25 -25 -25 -25 -25 -24 -24 -25 -25 -25 -25 -25 -24 -24 -24 -25 -25 -25 -25

GFSNW_500_temp_099.txt.gz
Temp
-19 -19 -18 -18 -19 -19 -21 -22 -22 -23 -22 -22 -22 -22 -21 -21 -20 -20 -20 -20 -20 -21 -22 -24 -25 -25 -26 -26 -25 -25 -24 -23 -23 -23 -22 -22 -21 -21 -21 -20 -20 -19 -19 -18
-19 -19 -19 -19 -20 -20 -21 -22 -22 -22 -22 -23 -22 -21 -21 -21 -21 -20 -20 -21 -22 -24 -26 -27 -27 -27 -26 -25 -25 -25 -24 -23 -22 -22 -22 -22 -21 -21 -21 -21 -20 -20 -19 -19
-19 -20 -20 -20 -21 -22 -23 -23 -23 -23 -24 -23 -22 -21 -21 -21 -21 -21 -22 -23 -24 -26 -27 -28 -27 -26 -25 -25 -25 -25 -23 -23 -22 -22 -22 -22 -21 -22 -21 -21 -20 -20 -20 -19
-20 -20 -21 -21 -23 -24 -24 -25 -24 -24 -24 -23 -22 -22 -22 -22 -22 -23 -24 -25 -26 -27 -27 -28 -26 -25 -25 -25 -25 -24 -23 -22 -21 -22 -22 -21 -22 -21 -21 -20 -20 -20 -19 -19
-21 -21 -22 -24 -24 -25 -25 -24 -24 -24 -23 -23 -22 -22 -22 -23 -24 -25 -25 -25 -26 -26 -26 -25 -25 -25 -25 -25 -23 -23 -23 -22 -22 -21 -21 -21 -22 -21 -21 -21 -20 -20 -19 -19
-22 -23 -24 -24 -25 -25 -25 -25 -25 -24 -23 -23 -22 -22 -23 -24 -26 -26 -25 -26 -26 -26 -25 -25 -25 -25 -25 -24 -24 -23 -23 -22 -22 -22 -21 -21 -20 -20 -20 -21 -20 -20 -20 -20
-23 -24 -24 -25 -26 -26 -26 -25 -24 -24 -23 -23 -23 -23 -24 -26 -26 -26 -26 -26 -26 -25 -25 -25 -25 -25 -25 -24 -23 -23 -23 -23 -22 -22 -23 -21 -21 -21 -21 -21 -21 -21 -21 -20
-25 -25 -25 -26 -25 -26 -26 -25 -24 -24 -23 -23 -23 -24 -25 -26 -27 -26 -26 -25 -25 -25 -25 -25 -24 -24 -24 -24 -23 -23 -23 -22 -22 -22 -22 -22 -22 -22 -22 -22 -21 -21 -21 -20
-25 -24 -25 -26 -26 -26 -26 -25 -24 -24 -24 -24 -24 -24 -25 -26 -27 -26 -26 -25 -26 -25 -25 -24 -24 -24 -24 -24 -24 -23 -23 -23 -22 -22 -22 -22 -22 -21 -22 -21 -21 -21 -21 -21
-25 -26 -26 -26 -26 -25 -26 -25 -25 -24 -24 -24 -24 -25 -26 -26 -27 -27 -26 -26 -25 -25 -25 -25 -25 -24 -24 -24 -24 -23 -23 -23 -22 -22 -22 -22 -22 -22 -22 -21 -21 -21 -21 -20
-25 -25 -26 -26 -26 -25 -26 -25 -25 -24 -24 -24 -25 -25 -26 -27 -27 -27 -26 -26 -26 -26 -25 -25 -24 -24 -24 -25 -24 -23 -23 -23 -23 -23 -22 -22 -22 -21 -21 -21 -21 -21 -21 -21
-26 -26 -26 -25 -25 -26 -26 -25 -25 -25 -25 -25 -25 -26 -27 -28 -27 -27 -26 -26 -26 -26 -25 -25 -25 -25 -25 -24 -25 -24 -24 -23 -23 -23 -22 -22 -22 -21 -21 -21 -21 -21 -21 -21
-26 -26 -26 -26 -26 -26 -26 -25 -25 -25 -25 -25 -25 -26 -27 -28 -28 -27 -27 -27 -26 -26 -26 -25 -25 -24 -25 -25 -25 -25 -24 -23 -23 -23 -22 -22 -22 -22 -21 -22 -21 -22 -22 -22
-26 -26 -26 -26 -26 -26 -26 -25 -25 -25 -25 -25 -25 -26 -27 -28 -28 -28 -27 -27 -26 -26 -26 -26 -25 -25 -25 -25 -24 -24 -24 -23 -23 -23 -22 -22 -22 -22 -22 -22 -22 -22 -22 -22
-26 -26 -26 -26 -27 -26 -26 -25 -25 -25 -25 -25 -26 -26 -27 -27 -28 -28 -28 -27 -27 -26 -26 -26 -26 -26 -25 -25 -24 -24 -24 -23 -23 -23 -22 -22 -22 -23 -23 -23 -23 -23 -23 -23
-27 -27 -27 -27 -27 -26 -26 -25 -25 -25 -26 -26 -26 -26 -27 -28 -28 -28 -28 -28 -27 -27 -27 -27 -26 -26 -26 -25 -25 -24 -24 -24 -23 -23 -23 -23 -23 -23 -23 -24 -24 -24 -23 -23
-27 -27 -27 -27 -27 -26 -26 -26 -26 -26 -26 -26 -26 -27 -27 -27 -27 -28 -28 -28 -28 -27 -27 -27 -26 -26 -26 -26 -25 -24 -24 -24 -24 -24 -24 -24 -24 -24 -24 -24 -24 -23 -23 -23
-27 -27 -27 -27 -27 -26 -26 -26 -26 -26 -26 -26 -27 -27 -27 -27 -28 -28 -28 -28 -28 -27 -27 -27 -26 -26 -26 -26 -25 -25 -24 -25 -25 -24 -25 -24 -24 -24 -24 -24 -24 -24 -24 -24
-27 -27 -27 -27 -27 -27 -26 -26 -26 -26 -26 -26 -27 -27 -28 -27 -27 -27 -27 -27 -27 -27 -27 -27 -27 -26 -26 -26 -25 -25 -25 -25 -25 -25 -24 -24 -24 -24 -24 -24 -24 -24 -24 -23
-27 -27 -28 -27 -27 -27 -27 -27 -27 -27 -27 -27 -27 -27 -27 -27 -27 -27 -27 -27 -27 -27 -27 -27 -26 -26 -26 -26 -25 -25 -25 -25 -25 -24 -24 -24 -24 -24 -24 -24 -24 -24 -24 -24
-27 -28 -28 -27 -27 -27 -27 -28 -27 -27 -27 -27 -27 -27 -27 -28 -28 -28 -27 -27 -27 -27 -27 -27 -27 -26 -26 -26 -25 -25 -25 -25 -25 -24 -24 -24 -24 -24 -24 -24 -24 -24 -24 -24
-28 -28 -28 -28 -27 -27 -27 -28 -28 -28 -28 -28 -28 -28 -28 -28 -28 -28 -28 -27 -27 -27 -27 -27 -26 -26 -26 -26 -25 -25 -25 -25 -25 -25 -25 -24 -24 -24 -24 -24 -24 -24 -24 -24
-28 -28 -28 -28 -28 -27 -27 -28 -29 -28 -28 -28 -28 -28 -28 -28 -28 -28 -28 -27 -27 -27 -27 -27 -26 -26 -26 -25 -25 -25 -25 -25 -25 -24 -24 -24 -24 -24 -24 -24 -24 -24 -24 -24
-29 -28 -28 -28 -28 -28 -28 -29 -28 -28 -28 -28 -28 -28 -28 -28 -28 -28 -28 -27 -27 -27 -27 -27 -26 -26 -26 -26 -25 -25 -25 -25 -24 -24 -24 -24 -24 -24 -24 -24 -24 -24 -24 -24
-29 -29 -28 -28 -28 -28 -29 -29 -29 -29 -29 -28 -28 -28 -29 -29 -29 -28 -28 -27 -27 -27 -27 -27 -26 -26 -26 -25 -25 -25 -25 -25 -24 -24 -24 -24 -24 -24 -24 -24 -24 -24 -24 -24
-29 -29 -28 -29 -29 -29 -29 -29 -29 -29 -28 -28 -28 -28 -28 -29 -29 -28 -28 -28 -27 -27 -27 -27 -26 -26 -25 -25 -25 -25 -25 -25 -25 -24 -24 -24 -24 -24 -25 -24 -24 -24 -24 -24
-29 -28 -28 -29 -30 -29 -29 -29 -29 -29 -29 -28 -29 -28 -28 -29 -28 -28 -28 -28 -27 -27 -27 -27 -26 -26 -26 -25 -25 -25 -25 -25 -25 -24 -24 -25 -25 -25 -24 -24 -24 -25 -25 -25

GFSNW_500_temp_102.txt.gz
Temp
-20 -20 -20 -19 -19 -19 -19 -19 -19 -21 -21 -21 -22 -22 -22 -22 -21 -21 -20 -20 -20 -20 -19 -19 -20 -21 -22 -25 -25 -25 -25 -24 -23 -24 -23 -23 -22 -22 -22 -22 -22 -21 -20 -20
-20 -19 -19 -19 -19 -19 -19 -20 -21 -22 -21 -23 -23 -23 -22 -22 -21 -21 -21 -20 -20 -20 -20 -20 -23 -26 -26 -25 -25 -25 -25 -24 -23 -23 -23 -23 -22 -22 -22 -21 -20 -20 -20 -19
-20 -20 -20 -20 -20 -20 -20 -21 -22 -22 -23 -23 -23 -23 -22 -21 -21 -21 -21 -21 -21 -22 -23 -23 -25 -26 -25 -25 -25 -25 -25 -24 -23 -23 -22 -22 -21 -21 -21 -21 -21 -20 -20 -19
-20 -20 -20 -20 -20 -21 -21 -22 -24 -24 -23 -23 -23 -22 -22 -21 -21 -21 -22 -22 -23 -23 -24 -25 -25 -25 -25 -25 -25 -24 -23 -23 -22 -22 -22 -22 -22 -22 -21 -21 -21 -20 -20 -19
-20 -20 -21 -21 -21 -22 -24 -25 -24 -24 -23 -23 -23 -22 -22 -21 -22 -23 -23 -24 -24 -24 -24 -25 -25 -25 -25 -24 -24 -23 -22 -22 -21 -21 -22 -22 -22 -22 -21 -21 -21 -21 -20 -20
-21 -21 -22 -22 -23 -24 -25 -24 -24 -24 -24 -23 -22 -22 -22 -22 -23 -24 -25 -25 -24 -25 -25 -25 -25 -24 -24 -24 -23 -23 -22 -21 -21 -21 -21 -22 -22 -22 -20 -21 -21 -21 -20 -20
-22 -22 -23 -24 -25 -25 -24 -24 -24 -24 -23 -23 -23 -22 -23 -23 -24 -25 -25 -25 -25 -25 -25 -26 -25 -24 -24 -24 -24 -23 -22 -22 -22 -22 -21 -21 -22 -22 -21 -21 -21 -21 -21 -21
-23 -24 -24 -25 -25 -25 -25 -24 -24 -24 -23 -23 -23 -23 -23 -24 -24 -25 -25 -25 -25 -25 -25 -25 -25 -25 -24 -24 -23 -23 -23 -22 -22 -22 -22 -22 -22 -22 -22 -21 -21 -21 -21 -21
-24 -25 -25 -25 -25 -25 -25 -25 -24 -24 -24 -23 -23 -23 -24 -24 -25 -25 -26 -25 -25 -25 -25 -25 -24 -24 -24 -23 -23 -23 -23 -22 -22 -22 -22 -22 -22 -22 -22 -22 -21 -21 -21 -20
-25 -25 -25 -25 -25 -25 -25 -25 -24 -24 -24 -23 -23 -23 -24 -25 -25 -26 -26 -26 -26 -26 -25 -25 -25 -25 -24 -24 -24 -23 -23 -23 -22 -23 -22 -22 -22 -22 -22 -21 -21 -21 -21 -20
-25 -25 -25 -25 -25 -25 -25 -25 -24 -24 -24 -24 -24 -24 -25 -25 -26 -26 -26 -26 -25 -25 -25 -25 -25 -25 -25 -24 -24 -24 -23 -23 -23 -23 -23 -23 -22 -22 -22 -21 -21 -21 -20 -20
-25 -25 -26 -26 -25 -25 -25 -25 -24 -24 -24 -24 -24 -25 -25 -25 -26 -27 -27 -26 -26 -26 -25 -25 -25 -25 -25 -25 -24 -24 -23 -23 -23 -23 -22 -22 -22 -22 -22 -21 -21 -21 -21 -21
-25 -25 -26 -26 -25 -26 -25 -25 -25 -24 -24 -24 -25 -25 -25 -26 -27 -27 -27 -27 -26 -26 -25 -25 -25 -25 -25 -25 -24 -24 -24 -23 -23 -23 -22 -22 -22 -22 -21 -21 -21 -21 -21 -21
-26 -26 -26 -26 -25 -26 -25 -25 -25 -24 -25 -25 -25 -25 -26 -27 -28 -28 -27 -27 -27 -26 -26 -26 -25 -25 -25 -25 -25 -24 -24 -23 -23 -23 -22 -22 -22 -21 -21 -21 -21 -22 -22 -22
-26 -26 -26 -26 -26 -26 -26 -25 -25 -25 -25 -25 -25 -25 -26 -27 -28 -28 -28 -27 -27 -27 -27 -26 -26 -26 -25 -25 -25 -24 -24 -23 -23 -23 -22 -22 -22 -22 -22 -22 -22 -22 -22 -23
-27 -26 -26 -26 -26 -26 -26 -25 -25 -25 -25 -25 -25 -26 -26 -27 -27 -28 -28 -27 -27 -27 -27 -27 -26 -26 -26 -25 -25 -24 -24 -23 -23 -23 -23 -22 -22 -22 -22 -22 -23 -23 -23 -23
-27 -27 -26 -26 -27 -26 -26 -25 -25 -25 -25 -26 -26 -26 -26 -27 -27 -28 -28 -28 -28 -28 -27 -27 -27 -26 -26 -25 -25 -24 -24 -24 -23 -23 -23 -23 -23 -23 -24 -24 -24 -24 -24 -24
-27 -27 -27 -27 -27 -26 -26 -26 -26 -26 -26 -26 -26 -26 -27 -27 -27 -27 -28 -28 -28 -28 -28 -27 -27 -26 -26 -26 -25 -24 -24 -24 -23 -23 -23 -24 -24 -24 -24 -24 -24 -24 -24 -24
-27 -27 -27 -27 -27 -26 -26 -26 -26 -26 -26 -26 -26 -26 -27 -27 -27 -27 -27 -28 -28 -27 -28 -27 -27 -26 -26 -26 -25 -25 -24 -24 -24 -24 -24 -24 -24 -24 -24 -24 -24 -24 -24 -24
-27 -27 -27 -27 -27 -26 -26 -26 -26 -26 -26 -26 -26 -26 -27 -27 -27 -27 -27 -27 -27 -27 -27 -27 -27 -26 -26 -25 -25 -25 -25 -25 -25 -25 -25 -24 -24 -24 -24 -24 -24 -24 -24 -24
-28 -27 -27 -27 -27 -27 -27 -27 -26 -27 -27 -27 -27 -27 -27 -27 -28 -27 -27 -27 -27 -27 -27 -27 -27 -26 -26 -25 -26 -25 -25 -25 -25 -25 -24 -24 -24 -25 -24 -24 -24 -24 -24 -24
-28 -28 -27 -27 -27 -27 -27 -27 -27 -27 -27 -27 -27 -27 -27 -27 -28 -28 -27 -27 -27 -27 -27 -27 -26 -26 -26 -26 -26 -26 -25 -25 -25 -25 -25 -25 -24 -24 -24 -24 -24 -24 -24 -24
-28 -28 -28 -27 -27 -27 -27 -28 -27 -27 -27 -27 -27 -28 -27 -27 -28 -28 -28 -27 -27 -27 -27 -27 -26 -26 -26 -26 -25 -25 -25 -25 -25 -25 -25 -24 -24 -24 -24 -24 -24 -24 -24 -24
-28 -28 -28 -28 -28 -28 -28 -28 -28 -27 -28 -28 -28 -28 -28 -28 -28 -28 -28 -28 -27 -27 -27 -27 -26 -26 -26 -26 -26 -26 -25 -25 -25 -25 -24 -24 -24 -24 -24 -24 -24 -24 -24 -24
-28 -28 -28 -28 -28 -28 -29 -28 -28 -28 -28 -28 -28 -28 -28 -28 -28 -28 -28 -28 -27 -27 -27 -27 -26 -26 -26 -26 -26 -25 -25 -25 -25 -24 -24 -24 -24 -24 -25 -25 -25 -25 -25 -24
-28 -28 -28 -28 -28 -29 -29 -28 -29 -28 -28 -28 -28 -28 -28 -29 -29 -29 -28 -28 -28 -27 -27 -27 -27 -26 -26 -26 -26 -26 -25 -25 -25 -25 -25 -24 -24 -25 -25 -25 -25 -25 -25 -24
-28 -28 -29 -29 -29 -29 -29 -29 -29 -29 -29 -28 -28 -28 -28 -29 -29 -29 -28 -28 -28 -27 -27 -27 -27 -26 -26 -26 -26 -25 -25 -25 -25 -25 -25 -25 -25 -25 -25 -25 -25 -25 -25 -24

GFSNW_500_temp_105.txt.gz
Temp
-21 -21 -20 -21 -21 -20 -20 -20 -19 -19 -19 -19 -19 -20 -21 -21 -21 -22 -21 -22 -21 -21 -20 -19 -19 -19 -19 -20 -21 -22 -24 -24 -25 -24 -23 -24 -23 -23 -23 -23 -22 -22 -22 -21
-20 -20 -20 -21 -20 -21 -20 -20 -20 -20 -20 -20 -21 -21 -21 -22 -22 -22 -22 -21 -21 -20 -20 -19 -20 -20 -21 -23 -24 -24 -24 -25 -24 -24 -23 -23 -23 -23 -23 -22 -22 -22 -22 -20
-21 -20 -20 -20 -20 -20 -20 -20 -20 -20 -21 -22 -22 -22 -22 -22 -22 -22 -21 -21 -21 -21 -20 -20 -21 -21 -23 -25 -24 -24 -24 -24 -24 -24 -23 -23 -23 -22 -22 -22 -21 -21 -21 -20
-21 -21 -21 -21 -20 -20 -21 -20 -21 -22 -22 -22 -22 -23 -23 -23 -22 -22 -22 -21 -21 -21 -22 -23 -23 -24 -24 -24 -23 -24 -23 -23 -23 -23 -23 -23 -22 -21 -21 -21 -21 -21 -21 -20
-21 -21 -21 -21 -21 -21 -21 -21 -22 -23 -23 -23 -23 -23 -23 -23 -22 -22 -22 -22 -22 -23 -24 -24 -24 -23 -24 -24 -23 -23 -23 -23 -22 -22 -22 -22 -22 -22 -21 -21 -21 -21 -20 -20
-21 -21 -21 -21 -21 -21 -21 -23 -23 -23 -24 -23 -23 -24 -23 -22 -23 -23 -22 -22 -23 -24 -25 -24 -24 -24 -24 -23 -23 -23 -23 -22 -22 -22 -22 -22 -22 -22 -22 -21 -21 -21 -21 -21
-21 -21 -21 -21 -22 -23 -23 -24 -24 -24 -24 -24 -24 -23 -23 -23 -23 -23 -23 -23 -25 -25 -25 -24 -24 -24 -23 -24 -23 -23 -23 -22 -23 -22 -22 -22 -22 -22 -22 -21 -21 -21 -21 -20
-22 -21 -22 -22 -23 -23 -23 -24 -25 -25 -25 -24 -23 -23 -23 -23 -23 -24 -24 -25 -25 -25 -25 -25 -24 -24 -24 -23 -24 -23 -23 -22 -22 -23 -22 -22 -22 -22 -22 -21 -21 -21 -21 -20
-22 -23 -23 -24 -23 -23 -24 -25 -25 -25 -25 -24 -23 -23 -23 -23 -24 -24 -25 -25 -25 -25 -25 -25 -24 -23 -23 -23 -23 -23 -22 -22 -22 -22 -22 -22 -22 -22 -22 -22 -22 -21 -21 -21
-24 -24 -24 -24 -24 -25 -25 -26 -26 -25 -24 -23 -23 -23 -23 -24 -24 -25 -25 -25 -25 -25 -25 -25 -25 -24 -24 -23 -23 -23 -23 -22 -22 -22 -22 -23 -22 -22 -22 -21 -21 -21 -21 -20
-24 -24 -25 -25 -25 -26 -25 -25 -25 -25 -24 -24 -23 -24 -24 -24 -25 -25 -26 -26 -25 -25 -25 -25 -25 -24 -24 -23 -23 -23 -23 -23 -23 -23 -22 -22 -22 -22 -22 -21 -21 -21 -21 -20
-24 -25 -26 -26 -26 -25 -25 -25 -25 -25 -24 -24 -23 -24 -24 -25 -25 -26 -26 -26 -26 -25 -25 -25 -25 -24 -24 -24 -23 -23 -23 -23 -23 -22 -22 -22 -22 -22 -22 -21 -21 -21 -21 -21
-25 -25 -26 -26 -26 -25 -25 -25 -25 -24 -24 -24 -24 -24 -25 -25 -25 -26 -26 -27 -26 -26 -25 -25 -25 -25 -25 -25 -24 -24 -23 -23 -23 -23 -22 -22 -22 -22 -22 -21 -21 -21 -21 -21
-25 -26 -26 -26 -25 -25 -26 -25 -25 -24 -24 -24 -24 -24 -24 -25 -26 -26 -27 -27 -27 -27 -26 -26 -25 -25 -25 -25 -25 -25 -24 -24 -23 -23 -22 -22 -22 -22 -21 -21 -21 -21 -22 -22
-26 -26 -26 -26 -26 -26 -26 -26 -25 -25 -24 -24 -24 -25 -25 -25 -26 -27 -28 -28 -27 -27 -27 -26 -26 -25 -25 -25 -25 -25 -25 -24 -23 -23 -22 -22 -22 -22 -22 -22 -22 -22 -22 -22
-26 -26 -26 -26 -26 -26 -26 -26 -25 -25 -24 -24 -25 -25 -25 -26 -26 -27 -28 -28 -28 -27 -27 -27 -26 -26 -25 -25 -25 -25 -24 -24 -23 -23 -23 -23 -22 -22 -22 -22 -22 -22 -22 -23
-27 -26 -26 -26 -26 -26 -26 -26 -25 -25 -25 -25 -25 -25 -25 -26 -27 -27 -28 -28 -28 -28 -27 -27 -27 -26 -26 -25 -25 -25 -24 -24 -23 -23 -23 -23 -23 -22 -22 -23 -23 -23 -23 -23
-27 -27 -27 -26 -26 -26 -26 -26 -25 -25 -25 -25 -25 -25 -26 -26 -27 -27 -27 -28 -28 -28 -28 -27 -27 -27 -26 -26 -25 -25 -25 -24 -24 -23 -23 -23 -23 -23 -24 -24 -24 -24 -24 -24
-27 -27 -27 -27 -27 -26 -26 -26 -25 -25 -25 -26 -26 -26 -26 -26 -27 -27 -27 -28 -28 -28 -27 -27 -27 -27 -26 -26 -25 -25 -24 -24 -24 -24 -23 -23 -24 -24 -24 -24 -24 -24 -24 -24
-27 -27 -27 -27 -27 -27 -26 -26 -26 -25 -26 -26 -26 -26 -26 -26 -27 -27 -27 -28 -27 -27 -27 -27 -27 -27 -26 -26 -25 -25 -24 -24 -24 -24 -24 -24 -24 -24 -24 -24 -24 -24 -24 -24
-27 -28 -27 -27 -27 -27 -26 -26 -26 -26 -26 -26 -26 -26 -27 -27 -27 -27 -27 -27 -27 -27 -27 -27 -27 -27 -26 -26 -26 -26 -25 -25 -25 -25 -24 -24 -25 -24 -24 -24 -24 -24 -24 -24
-28 -27 -27 -27 -27 -27 -26 -26 -26 -26 -26 -26 -26 -27 -27 -27 -27 -27 -27 -27 -27 -27 -27 -27 -27 -27 -26 -26 -26 -25 -25 -25 -25 -25 -25 -25 -25 -25 -24 -24 -24 -24 -24 -24
-28 -28 -28 -28 -27 -27 -27 -27 -26 -27 -27 -27 -27 -27 -27 -27 -27 -27 -28 -27 -27 -27 -27 -27 -27 -26 -26 -26 -26 -26 -25 -25 -25 -25 -25 -25 -24 -25 -25 -25 -25 -25 -25 -25
-27 -28 -28 -28 -28 -27 -27 -27 -27 -27 -27 -27 -27 -27 -27 -27 -27 -27 -28 -27 -27 -27 -27 -27 -27 -26 -26 -26 -26 -26 -26 -25 -25 -25 -25 -25 -25 -24 -25 -25 -25 -25 -25 -25
-27 -28 -28 -28 -28 -28 -27 -27 -27 -27 -28 -28 -28 -27 -27 -27 -27 -28 -28 -28 -27 -27 -27 -27 -26 -26 -26 -26 -26 -26 -26 -25 -25 -25 -25 -25 -24 -24 -25 -25 -25 -25 -25 -25
-28 -28 -28 -28 -28 -28 -28 -28 -28 -28 -28 -28 -28 -28 -28 -28 -28 -28 -28 -28 -28 -27 -27 -27 -27 -26 -26 -26 -26 -26 -26 -25 -25 -25 -25 -25 -25 -25 -25 -25 -25 -25 -25 -25
-28 -28 -28 -28 -28 -28 -28 -28 -28 -28 -28 -28 -28 -28 -28 -29 -29 -29 -29 -28 -28 -28 -27 -27 -27 -26 -26 -26 -26 -26 -26 -25 -25 -25 -25 -25 -25 -25 -25 -25 -25 -25 -25 -25

GFSNW_500_temp_108.txt.gz
Temp
-21 -21 -21 -21 -21 -21 -21 -21 -21 -21 -20 -20 -20 -21 -20 -20 -19 -20 -20 -21 -22 -22 -22 -21 -21 -20 -20 -19 -19 -20 -20 -21 -22 -23 -24 -24 -24 -24 -24 -23 -23 -22 -22 -20
-21 -21 -21 -21 -21 -21 -21 -21 -21 -21 -20 -20 -20 -20 -20 -20 -20 -22 -22 -22 -22 -22 -21 -21 -21 -21 -20 -20 -20 -21 -23 -24 -24 -25 -24 -24 -24 -23 -23 -23 -23 -22 -22 -21
-21 -21 -21 -21 -21 -21 -21 -21 -21 -21 -20 -21 -20 -20 -21 -22 -22 -22 -22 -22 -22 -22 -21 -21 -20 -20 -20 -21 -22 -24 -24 -24 -24 -25 -24 -24 -23 -23 -22 -22 -22 -22 -21 -21
-21 -21 -21 -21 -21 -21 -21 -21 -20 -21 -20 -20 -20 -21 -22 -23 -23 -22 -23 -23 -22 -21 -21 -21 -21 -22 -23 -23 -24 -24 -24 -24 -24 -24 -24 -23 -23 -22 -21 -21 -21 -21 -21 -21
-21 -21 -21 -21 -21 -21 -21 -21 -20 -20 -21 -21 -22 -23 -23 -23 -23 -23 -22 -22 -22 -22 -21 -22 -23 -23 -23 -23 -24 -24 -24 -24 -24 -23 -23 -23 -22 -22 -22 -21 -21 -21 -21 -21
-21 -21 -21 -21 -21 -21 -21 -21 -21 -21 -22 -22 -23 -23 -23 -23 -24 -23 -22 -22 -22 -22 -22 -23 -23 -24 -24 -24 -24 -23 -23 -24 -24 -23 -23 -22 -23 -22 -22 -21 -21 -21 -21 -21
-21 -21 -21 -21 -21 -21 -21 -21 -22 -22 -22 -23 -23 -24 -24 -24 -23 -23 -23 -22 -22 -23 -24 -24 -24 -24 -24 -24 -24 -23 -23 -23 -23 -23 -23 -23 -22 -22 -21 -21 -21 -21 -21 -21
-21 -21 -21 -21 -21 -22 -22 -22 -23 -23 -23 -24 -24 -25 -24 -23 -23 -23 -23 -23 -23 -24 -25 -24 -24 -24 -24 -23 -24 -23 -23 -23 -23 -23 -23 -22 -22 -21 -22 -22 -21 -21 -21 -21
-22 -22 -22 -21 -22 -22 -22 -23 -23 -24 -24 -24 -25 -24 -23 -23 -23 -23 -23 -23 -24 -25 -25 -25 -24 -24 -24 -23 -23 -23 -23 -23 -23 -23 -23 -23 -23 -22 -22 -21 -21 -21 -21 -21
-22 -22 -22 -22 -23 -23 -24 -24 -24 -25 -25 -24 -24 -24 -23 -23 -23 -24 -24 -24 -25 -25 -25 -25 -25 -25 -24 -24 -23 -23 -23 -22 -23 -23 -23 -23 -22 -22 -22 -22 -22 -21 -21 -21
-22 -23 -23 -23 -24 -24 -24 -25 -25 -25 -24 -25 -24 -24 -23 -23 -24 -24 -24 -25 -25 -25 -25 -25 -25 -25 -24 -24 -24 -23 -23 -22 -23 -23 -22 -22 -23 -22 -22 -22 -21 -21 -21 -21
-24 -24 -24 -24 -24 -25 -25 -26 -25 -25 -25 -24 -24 -24 -24 -24 -24 -24 -25 -26 -26 -26 -25 -25 -25 -25 -24 -24 -24 -23 -23 -23 -23 -22 -23 -22 -22 -22 -22 -21 -21 -21 -21 -21
-25 -25 -25 -25 -25 -25 -25 -25 -25 -25 -25 -24 -24 -24 -24 -24 -24 -25 -25 -26 -26 -26 -26 -25 -25 -25 -25 -24 -24 -24 -23 -23 -23 -23 -22 -22 -22 -22 -22 -21 -21 -21 -21 -21
-25 -25 -25 -25 -25 -26 -26 -26 -25 -25 -24 -24 -24 -24 -24 -24 -25 -25 -26 -26 -27 -27 -27 -26 -25 -25 -25 -25 -25 -24 -24 -23 -23 -23 -22 -22 -22 -22 -22 -21 -22 -22 -21 -21
-25 -25 -26 -26 -26 -26 -26 -25 -25 -25 -24 -24 -24 -24 -24 -25 -25 -26 -26 -27 -27 -27 -27 -27 -26 -25 -25 -25 -25 -25 -24 -24 -23 -23 -23 -22 -22 -22 -22 -22 -22 -22 -22 -22
-25 -26 -26 -26 -26 -26 -26 -25 -25 -25 -24 -24 -24 -24 -24 -25 -25 -26 -27 -28 -28 -28 -27 -27 -27 -26 -25 -25 -25 -25 -25 -25 -24 -24 -23 -23 -22 -22 -22 -22 -22 -22 -22 -23
-26 -26 -26 -26 -26 -26 -26 -25 -25 -25 -25 -24 -25 -25 -25 -25 -26 -26 -27 -28 -28 -28 -28 -27 -27 -26 -26 -25 -25 -25 -25 -25 -24 -24 -23 -23 -23 -23 -22 -22 -22 -22 -23 -23
-27 -26 -26 -26 -26 -26 -26 -26 -25 -25 -25 -25 -25 -25 -25 -25 -26 -27 -27 -28 -28 -28 -28 -27 -27 -27 -26 -26 -25 -25 -25 -25 -24 -24 -23 -23 -23 -23 -22 -23 -24 -24 -24 -24
-27 -27 -27 -26 -26 -26 -26 -26 -25 -25 -25 -25 -25 -25 -25 -26 -26 -27 -27 -27 -28 -28 -28 -28 -27 -27 -27 -26 -26 -25 -25 -25 -24 -24 -24 -24 -23 -23 -23 -24 -24 -24 -24 -24
-27 -27 -27 -27 -26 -26 -26 -26 -26 -25 -25 -25 -26 -26 -26 -26 -26 -27 -27 -27 -28 -28 -28 -27 -27 -27 -27 -27 -26 -25 -25 -25 -24 -24 -24 -24 -24 -24 -24 -24 -24 -24 -24 -24
-27 -27 -27 -27 -27 -27 -26 -26 -26 -25 -25 -25 -26 -26 -26 -26 -26 -26 -27 -27 -28 -27 -27 -27 -27 -27 -27 -27 -26 -25 -25 -24 -24 -24 -24 -24 -24 -24 -24 -24 -24 -24 -24 -24
-27 -27 -27 -27 -27 -27 -27 -26 -26 -26 -26 -26 -26 -26 -26 -27 -27 -27 -27 -27 -27 -27 -27 -28 -27 -27 -27 -26 -26 -26 -26 -25 -25 -25 -25 -25 -25 -25 -24 -24 -24 -24 -24 -24
-28 -28 -27 -28 -27 -27 -27 -26 -26 -26 -26 -26 -26 -26 -27 -27 -27 -27 -27 -27 -27 -27 -27 -28 -27 -27 -27 -26 -26 -26 -26 -26 -26 -26 -25 -25 -25 -25 -25 -24 -24 -25 -25 -25
-28 -27 -28 -28 -27 -27 -27 -27 -26 -26 -26 -27 -27 -27 -27 -27 -27 -27 -27 -27 -27 -27 -27 -27 -27 -27 -26 -26 -26 -26 -26 -26 -25 -25 -25 -25 -25 -25 -25 -25 -25 -25 -25 -25
-28 -28 -28 -27 -27 -27 -27 -27 -27 -27 -27 -27 -27 -27 -27 -27 -27 -27 -27 -27 -27 -27 -27 -27 -27 -27 -27 -26 -26 -26 -26 -26 -26 -25 -25 -25 -25 -25 -25 -25 -25 -25 -25 -25
-28 -28 -28 -28 -28 -28 -27 -27 -27 -27 -27 -27 -27 -27 -27 -27 -27 -27 -28 -28 -28 -27 -27 -27 -27 -27 -26 -26 -26 -26 -26 -26 -26 -25 -25 -25 -25 -25 -25 -25 -25 -25 -25 -25
-28 -28 -28 -28 -28 -28 -27 -28 -28 -28 -28 -28 -28 -28 -27 -28 -28 -28 -28 -29 -28 -28 -28 -27 -27 -27 -26 -26 -26 -26 -26 -26 -26 -26 -25 -25 -25 -25 -25 -26 -26 -26 -26 -26